Location: Hains Lake
(37.8540°N, 99.8578°W)
Time: 18:03:44
(UTC+00:00)

Courier 1B Rocket - Pass Details

Date: 26 April 2021
Orbit: 920 x 1202 km, 28.2° (Epoch: 05 May)

Event Time Altitude Azimuth Distance (km) Brightness Sun altitude
Rises 04:25:13 0° 262° (W) 3,699 8.4 -30.0°
Reaches altitude 10° 04:28:24 10° 248° (WSW) 2,795 7.5 -30.3°
Enters shadow 04:30:53 18° 229° (SW) 2,277 6.8 -30.6°
